Emporia, Virginia, United States (23847)
Lat: 36.69N, Lon: 77.54W
Wx Zone: VAZ087
Local Info
Past Weather Observations for Tuesday, March 24, 2015

NOTE: This archive is for the closest National Weather Service station to Emporia. Information may differ from the station used for current weather conditions.

Click here for Long-term Archive

Time Weather Temperature Dewpoint Humidity Pressure Winds Precip Visibility
23:55
Mostly Cloudy
41°F / 5°C 30°F / -1°C 66% 30.36 in
(1028 mb)
Calm - 10SM
23:35
Overcast
41°F / 5°C 30°F / -1°C 66% 30.36 in
(1028 mb)
NE 5.8 mph
(NE 9 kph)
- 10SM
23:15
Overcast
41°F / 5°C 30°F / -1°C 66% 30.36 in
(1028 mb)
NE 3.5 mph
(NE 6 kph)
- 10SM
22:55
Overcast
43°F / 6°C 30°F / -1°C 61% 30.36 in
(1028 mb)
NE 5.8 mph
(NE 9 kph)
- 10SM
22:35
Overcast
43°F / 6°C 32°F / 0°C 66% 30.36 in
(1028 mb)
ENE 5.8 mph
(ENE 9 kph)
- 10SM
22:15
Overcast
43°F / 6°C 32°F / 0°C 66% 30.36 in
(1028 mb)
ENE 5.8 mph
(ENE 9 kph)
- 10SM
21:55
Overcast
43°F / 6°C 32°F / 0°C 66% 30.36 in
(1028 mb)
ENE 6.9 mph
(ENE 11 kph)
- 10SM
21:35
Overcast
43°F / 6°C 32°F / 0°C 66% 30.36 in
(1028 mb)
ENE 5.8 mph
(ENE 9 kph)
- 10SM
21:15
Overcast
43°F / 6°C 32°F / 0°C 66% 30.36 in
(1028 mb)
NE 4.6 mph
(NE 7 kph)
- 10SM
20:55
Overcast
45°F / 7°C 32°F / 0°C 61% 30.36 in
(1028 mb)
Calm - 10SM
20:35
Overcast
45°F / 7°C 32°F / 0°C 61% 30.36 in
(1028 mb)
ENE 8.1 mph
(ENE 13 kph)
- 10SM
20:15
Overcast
45°F / 7°C 32°F / 0°C 61% 30.33 in
(1027 mb)
NE 10.4 mph
(NE 17 kph)
- 10SM
19:55
Overcast
46°F / 8°C 34°F / 1°C 62% 30.33 in
(1027 mb)
ENE 3.5 mph
(ENE 6 kph)
- 10SM
19:35
Overcast
46°F / 8°C 34°F / 1°C 62% 30.33 in
(1027 mb)
NE 5.8 mph
(NE 9 kph)
- 10SM
19:15
Overcast
48°F / 9°C 34°F / 1°C 58% 30.33 in
(1027 mb)
NE 10.4 mph
(NE 17 kph)
- 10SM
18:55
Overcast
50°F / 10°C 34°F / 1°C 54% 30.3 in
(1026 mb)
NE 8.1 mph
(NE 13 kph)
- 10SM
18:35
Overcast
50°F / 10°C 34°F / 1°C 54% 30.3 in
(1026 mb)
NE 4.6 mph
(NE 7 kph)
- 10SM
18:15
Mostly Cloudy
52°F / 11°C 34°F / 1°C 50% 30.3 in
(1026 mb)
NE 10.4 mph
(NE 17 kph)
- 10SM
17:55
Mostly Cloudy
52°F / 11°C 34°F / 1°C 50% 30.27 in
(1025 mb)
ENE 9.2 mph
(ENE 15 kph)
- 10SM
17:35
Partly Cloudy
57°F / 14°C 34°F / 1°C 41% 30.27 in
(1025 mb)
N 9.2 mph
(N 15 kph)
- 10SM
17:15
Clear
57°F / 14°C 34°F / 1°C 41% 30.24 in
(1024 mb)
NE 4.6 mph
(NE 7 kph)
- 10SM
16:55
Clear
59°F / 15°C 34°F / 1°C 39% 30.24 in
(1024 mb)
Calm - 10SM
16:35
Clear
59°F / 15°C 34°F / 1°C 39% 30.24 in
(1024 mb)
SE 3.5 mph
(SE 6 kph)
- 10SM
16:15
Clear
59°F / 15°C 34°F / 1°C 39% 30.24 in
(1024 mb)
Calm - 10SM
15:55
Clear
61°F / 16°C 32°F / 0°C 34% 30.24 in
(1024 mb)
SSE 4.6 mph
(SSE 7 kph)
- 10SM
15:35
Clear
59°F / 15°C 32°F / 0°C 36% 30.24 in
(1024 mb)
SE 8.1 mph
(SE 13 kph)
- 10SM
15:15
Partly Cloudy
59°F / 15°C 32°F / 0°C 36% 30.24 in
(1024 mb)
Calm - 10SM
14:55
Partly Cloudy
61°F / 16°C 32°F / 0°C 34% 30.24 in
(1024 mb)
ESE 4.6 mph
(ESE 7 kph)
- 10SM
14:35
Clear
59°F / 15°C 32°F / 0°C 36% 30.24 in
(1024 mb)
E 3.5 mph
(E 6 kph)
- 10SM
14:15
Clear
57°F / 14°C 32°F / 0°C 39% 30.24 in
(1024 mb)
Calm - 10SM
13:55
Clear
57°F / 14°C 30°F / -1°C 36% 30.24 in
(1024 mb)
E 3.5 mph
(E 6 kph)
- 10SM
13:35
Clear
57°F / 14°C 30°F / -1°C 36% 30.24 in
(1024 mb)
Calm - 10SM
13:15
Clear
55°F / 13°C 28°F / -2°C 36% 30.24 in
(1024 mb)
Calm - 10SM
12:55
Clear
54°F / 12°C 28°F / -2°C 38% 30.27 in
(1025 mb)
SE 3.5 mph
(SE 6 kph)
- 10SM
12:35
Clear
54°F / 12°C 28°F / -2°C 38% 30.27 in
(1025 mb)
Calm - 10SM
12:15
Clear
54°F / 12°C 28°F / -2°C 38% 30.27 in
(1025 mb)
NE 8.1 mph
(NE 13 kph)
- 10SM
11:55
Partly Cloudy
52°F / 11°C 28°F / -2°C 41% 30.27 in
(1025 mb)
NE 4.6 mph
(NE 7 kph)
- 10SM
11:35
Mostly Cloudy
52°F / 11°C 27°F / -3°C 38% 30.3 in
(1026 mb)
E 6.9 mph
(E 11 kph)
- 10SM
11:15
Mostly Cloudy
52°F / 11°C 27°F / -3°C 38% 30.3 in
(1026 mb)
ENE 3.5 mph
(ENE 6 kph)
- 10SM
10:55
Mostly Cloudy
50°F / 10°C 27°F / -3°C 40% 30.3 in
(1026 mb)
NE 4.6 mph
(NE 7 kph)
- 10SM
10:35
Partly Cloudy
46°F / 8°C 27°F / -3°C 46% 30.3 in
(1026 mb)
NE 3.5 mph
(NE 6 kph)
- 10SM
10:15
Mostly Cloudy
46°F / 8°C 27°F / -3°C 46% 30.3 in
(1026 mb)
NE 5.8 mph
(NE 9 kph)
- 10SM
09:55
Clear
46°F / 8°C 27°F / -3°C 46% 30.3 in
(1026 mb)
NE 3.5 mph
(NE 6 kph)
- 10SM
09:35
Mostly Cloudy
45°F / 7°C 28°F / -2°C 53% 30.3 in
(1026 mb)
NE 3.5 mph
(NE 6 kph)
- 10SM
09:15
Mostly Cloudy
43°F / 6°C 28°F / -2°C 57% 30.3 in
(1026 mb)
ENE 6.9 mph
(ENE 11 kph)
- 10SM
08:55
Clear
41°F / 5°C 30°F / -1°C 66% 30.3 in
(1026 mb)
N 3.5 mph
(N 6 kph)
- 10SM
08:35
Clear
39°F / 4°C 32°F / 0°C 75% 30.3 in
(1026 mb)
N 3.5 mph
(N 6 kph)
- 10SM
08:15
Clear
39°F / 4°C 32°F / 0°C 75% 30.3 in
(1026 mb)
NE 3.5 mph
(NE 6 kph)
- 10SM
07:55
Partly Cloudy
37°F / 3°C 32°F / 0°C 81% 30.3 in
(1026 mb)
Calm - 10SM
07:35
Clear
36°F / 2°C 32°F / 0°C 87% 30.3 in
(1026 mb)
N 3.5 mph
(N 6 kph)
- 10SM
07:15
Clear
34°F / 1°C 32°F / 0°C 93% 30.3 in
(1026 mb)
NNW 3.5 mph
(NNW 6 kph)
- 10SM
06:55
Clear
34°F / 1°C 32°F / 0°C 93% 30.27 in
(1025 mb)
Calm - 10SM
06:35
Clear
32°F / 0°C 32°F / 0°C 100% 30.27 in
(1025 mb)
Calm - 10SM
06:15
Clear
32°F / 0°C 32°F / 0°C 100% 30.27 in
(1025 mb)
Calm - 10SM
05:55
Partly Cloudy
32°F / 0°C 32°F / 0°C 100% 30.27 in
(1025 mb)
Calm - 10SM
05:35
Partly Cloudy
32°F / 0°C 32°F / 0°C 100% 30.27 in
(1025 mb)
Calm - 10SM
05:15
Mostly Cloudy
34°F / 1°C 32°F / 0°C 93% 30.24 in
(1024 mb)
Calm - 10SM
04:55
Mostly Cloudy
34°F / 1°C 32°F / 0°C 93% 30.24 in
(1024 mb)
Calm - 10SM
04:35
Overcast
34°F / 1°C 32°F / 0°C 93% 30.24 in
(1024 mb)
NNW 4.6 mph
(NNW 7 kph)
- 10SM
04:15
Overcast
36°F / 2°C 32°F / 0°C 87% 30.24 in
(1024 mb)
NW 4.6 mph
(NW 7 kph)
- 10SM
03:55
Overcast
36°F / 2°C 32°F / 0°C 87% 30.24 in
(1024 mb)
Calm - 10SM
03:35
Overcast
36°F / 2°C 32°F / 0°C 87% 30.24 in
(1024 mb)
Calm - 10SM
03:15
Overcast
36°F / 2°C 32°F / 0°C 87% 30.21 in
(1023 mb)
Calm - 10SM
02:55
Overcast
34°F / 1°C 32°F / 0°C 93% 30.21 in
(1023 mb)
Calm - 10SM
02:35
Overcast
34°F / 1°C 32°F / 0°C 93% 30.24 in
(1024 mb)
Calm - 10SM
02:15
Mostly Cloudy
34°F / 1°C 32°F / 0°C 93% 30.24 in
(1024 mb)
Calm - 10SM
01:55
Mostly Cloudy
34°F / 1°C 32°F / 0°C 93% 30.24 in
(1024 mb)
Calm - 10SM
01:35
Mostly Cloudy
34°F / 1°C 32°F / 0°C 93% 30.24 in
(1024 mb)
Calm - 10SM
01:15
Overcast
34°F / 1°C 30°F / -1°C 87% 30.24 in
(1024 mb)
Calm - 10SM
00:55
Mostly Cloudy
32°F / 0°C 30°F / -1°C 93% 30.24 in
(1024 mb)
Calm - 10SM
00:35
Mostly Cloudy
32°F / 0°C 30°F / -1°C 93% 30.24 in
(1024 mb)
Calm - 10SM
00:15
Partly Cloudy
32°F / 0°C 30°F / -1°C 93% 30.24 in
(1024 mb)
Calm - 10SM
Time Weather Temperature Dewpoint Humidity Pressure Winds Precip Visibility


Weather for websites

WeatherForYou.com, LLC is not responsible for any damages or problems caused by this service. Current weather conditions are obtained from the closest station including government and personal stations which may have varying degrees of accuracy. Weather forecasts are derived from the NOAA NDFD. Like all things, this site belongs to Jesus Christ... He just trusts me to maintain it. If you have any questions or comments email webmaster@weatherforyou.com

Copyright © 2015, WeatherForYou.com LLC. All rights reserved.